Weather History for KWVI - October, 2012

Change the Weather History Date:

Saturday, October 13, 2012

  Actual Average Record
Temperature  
Mean Temperature 60 °F 61 °F  
Max Temperature 72 °F 73 °F 94 °F (2004)
Min Temperature 47 °F 49 °F 40 °F (2008)
Degree Days  
Heating Degree Days 5    
Month to date heating degree days 47  
Since 1 July heating degree days 412  
Cooling Degree Days 0    
Month to date cooling degree days 28  
Year to date cooling degree days 54  
Growing Degree Days 10 (Base 50)    
Moisture  
Dew Point 51 °F    
Average Humidity 75    
Maximum Humidity 100    
Minimum Humidity 49    
Precipitation  
Precipitation 0.00 in - 0.52 in (1962)
Month to date precipitation 0.09  
Year to date precipitation 12.07  
Since 1 July precipitation 0.14  
Sea Level Pressure  
Sea Level Pressure 30.24 in    
Wind  
Wind Speed 2 mph (West)    
Max Wind Speed 17 mph    
Max Gust Speed -    
Visibility 10 miles    
Events      
T = Trace of Precipitation, MM = Missing Value Source: NWS Daily Summary

Daily Weather History Graph

Daily Weather History Graph

Search for Another Location

Airport or City:

Trip Planner

Search our weather history database for the weather conditions in past years. The results will help you decide how hot, cold, wet, or windy it might be!

Date:

Astronomy

Oct. 13, 2012 Rise Set
Actual Time 7:13 AM PDT 6:32 PM PDT
Civil Twilight 6:47 AM PDT 6:58 PM PDT
Nautical Twilight 6:17 AM PDT 7:28 PM PDT
Astronomical Twilight 5:47 AM PDT 7:58 PM PDT
Moon 5:11 AM PDT (10/13) 5:18 PM PDT (10/13)
Length of Visible Light 12h 11m
Length of Day
11h 18m
Waning Crescent, 4% of the Moon is Illuminated
Oct 13
Waning Crescent
Oct 15
New
Oct 21
First Quarter
Oct 29
Full
Nov 6
Last Quarter

Hourly Weather History & Observations

Time (PDT) Temp. Dew Point Humidity Pressure Visibility Wind Dir Wind Speed Gust Speed Precip Events Conditions
12:30 AM 57.2 °F 53.6 °F 88% 30.23 in 10.0 mi Calm Calm - N/A   Overcast
12:53 AM 55.9 °F 54.0 °F 93% 30.24 in 10.0 mi Calm Calm - N/A   Overcast
1:53 AM 57.0 °F 54.0 °F 89% 30.25 in 10.0 mi Calm Calm - N/A   Overcast
2:33 AM 55.4 °F 53.6 °F 94% 30.25 in 10.0 mi Calm Calm - N/A   Scattered Clouds
2:53 AM 54.0 °F 53.1 °F 97% 30.24 in 10.0 mi Calm Calm - N/A   Clear
3:53 AM 53.1 °F 51.1 °F 93% 30.25 in 10.0 mi Calm Calm - N/A   Clear
4:53 AM 51.1 °F 48.9 °F 92% 30.25 in 10.0 mi Calm Calm - N/A   Clear
5:53 AM 50.0 °F 48.0 °F 93% 30.26 in 10.0 mi Calm Calm - N/A   Clear
6:53 AM 48.9 °F 48.0 °F 97% 30.27 in 10.0 mi WNW 5.8 mph - N/A   Clear
7:53 AM 50.0 °F 48.0 °F 93% 30.27 in 10.0 mi Calm Calm - N/A   Clear
8:53 AM 54.0 °F 50.0 °F 86% 30.30 in 10.0 mi Calm Calm - 0.01 in   Clear
9:53 AM 59.0 °F 50.0 °F 72% 30.30 in 10.0 mi Calm Calm - N/A   Clear
10:53 AM 64.9 °F 51.1 °F 61% 30.29 in 10.0 mi Calm Calm - N/A   Clear
11:53 AM 66.9 °F 51.1 °F 57% 30.27 in 10.0 mi Calm Calm - N/A   Clear
1:53 PM 71.1 °F 52.0 °F 51% 30.22 in 10.0 mi SSW 9.2 mph - N/A   Clear
2:53 PM 71.1 °F 51.1 °F 49% 30.19 in 10.0 mi WSW 9.2 mph - N/A   Clear
3:53 PM 69.1 °F 50.0 °F 51% 30.18 in 10.0 mi WSW 10.4 mph - N/A   Clear
5:53 PM 66.9 °F 52.0 °F 59% 30.17 in 10.0 mi West 5.8 mph - N/A   Clear
7:53 PM 60.1 °F 53.1 °F 78% 30.18 in 10.0 mi Calm Calm - N/A   Clear
10:53 PM 55.9 °F 52.0 °F 87% 30.20 in 10.0 mi Calm Calm - N/A   Clear
11:53 PM 55.9 °F 52.0 °F 87% 30.19 in 10.0 mi NW 4.6 mph - N/A   Clear